N0HOT Weather Reports


Display with metric or nautical units.
time (UTC)temp
F
wind
direction
speed
MPH
gust
MPH
rain 1hr
in
rain 24hr
in
rain mn
in
humidity
%
barometer
mb
20260902091059 68 337 1.0 1.0 0.00 0.08 0.08 88 1013.9
20260902090555 68 55 1.0 1.0 0.00 0.08 0.08 88 1013.2
20260902090053 68 56 0.0 0.0 0.00 0.08 0.08 88 1013.2
20260902085548 68 56 0.0 0.0 0.00 0.08 0.08 88 1013.2
20260902085043 68 56 0.0 0.0 0.00 0.08 0.08 88 1013.6
20260902084539 68 56 0.0 0.0 0.00 0.08 0.08 88 1013.9
20260902084035 68 56 0.0 0.0 0.00 0.08 0.08 88 1013.9
20260902083525 68 55 0.0 0.0 0.00 0.08 0.08 88 1013.9
20260902083025 68 56 0.0 0.0 0.00 0.08 0.08 88 1013.9
20260902082520 68 56 0.0 0.0 0.00 0.08 0.08 88 1013.9
20260902082017 68 56 0.0 0.0 0.00 0.08 0.08 88 1013.9
20260902081513 68 55 0.0 0.0 0.00 0.08 0.08 88 1014.3
20260902081012 68 56 0.0 0.0 0.00 0.08 0.08 88 1013.9
20260902080508 68 56 0.0 0.0 0.00 0.08 0.08 88 1014.3
20260902080004 68 56 1.0 1.0 0.00 0.08 0.08 88 1015.0
20260902075459 68 38 0.0 0.0 0.00 0.08 0.08 88 1014.6
20260902074954 68 25 0.0 1.0 0.05 0.08 0.08 88 1015.0
20260902074449 68 182 2.0 3.0 0.19 0.08 0.08 88 1014.6
20260902073944 68 183 2.0 2.0 0.31 0.07 0.07 88 1014.6
20260902073440 68 7 3.0 4.0 0.24 0.05 0.05 88 1014.6
20260902072936 68 228 5.0 8.0 0.12 0.02 0.02 88 1015.3
20260902072432 68 243 9.0 17.0 0.05 0.01 0.01 88 1014.3
20260902071928 68 276 6.0 9.0 0.00 0.00 0.00 89 1015.0
20260902071427 68 37 0.0 0.0 0.00 0.00 0.00 89 1012.2
20260902070924 68 37 0.0 0.0 0.00 0.00 0.00 89 1011.8
20260902070419 68 37 0.0 0.0 0.00 0.00 0.00 89 1012.2
20260902065918 68 37 0.0 0.0 0.00 0.00 0.00 89 1012.2
20260902065413 68 37 0.0 0.0 0.00 0.00 0.00 89 1012.2
20260902064908 68 37 0.0 0.0 0.00 0.00 0.00 89 1011.8
20260902064404 68 37 0.0 0.0 0.00 0.00 0.00 89 1011.8
20260902063900 68 37 0.0 0.0 0.00 0.00 0.00 88 1012.2
20260902063354 68 37 0.0 0.0 0.00 0.00 0.00 88 1011.8
20260902062854 69 37 0.0 0.0 0.00 0.00 0.00 88 1011.8
20260902062354 69 37 0.0 0.0 0.00 0.00 0.00 88 1012.2
20260902061853 69 37 0.0 0.0 0.00 0.00 0.00 89 1011.8
20260902061349 69 36 0.0 0.0 0.00 0.00 0.00 89 1011.8
20260902060845 69 36 0.0 1.0 0.00 0.00 0.00 89 1011.8
20260902060340 69 36 0.0 0.0 0.00 0.00 0.00 89 1011.8
20260902055836 69 36 0.0 0.0 0.00 0.00 0.00 89 1011.5
20260902055332 69 36 0.0 0.0 0.00 0.00 0.00 89 1011.5
20260902054827 69 36 0.0 0.0 0.00 0.00 0.00 89 1011.8
20260902054323 69 36 0.0 0.0 0.00 0.00 0.00 89 1011.8
20260902053818 69 36 0.0 0.0 0.00 0.00 0.00 89 1012.2
20260902053313 69 36 0.0 0.0 0.00 0.00 0.00 88 1012.2
20260902052812 69 36 0.0 0.0 0.00 0.00 0.00 88 1012.5
20260902052308 69 36 0.0 0.0 0.00 0.00 0.00 88 1012.8
20260902051802 70 343 1.0 1.0 0.00 0.00 0.00 88 1012.8
20260902051301 70 29 0.0 0.0 0.00 0.00 0.00 88 1013.2
20260902050757 70 30 1.0 1.0 0.00 0.00 0.00 89 1012.8
20260902050251 70 32 0.0 1.0 0.00 0.00 0.00 89 1012.8
20260902045751 70 32 0.0 0.0 0.00 0.15 0.15 89 1012.5
20260902045247 70 32 0.0 0.0 0.00 0.15 0.15 89 1012.5
20260902044743 70 32 0.0 0.0 0.00 0.15 0.15 89 1012.5
20260902044238 70 32 0.0 1.0 0.00 0.15 0.15 89 1013.2
20260902043733 71 32 0.0 0.0 0.00 0.15 0.15 88 1013.2
20260902043229 71 358 0.0 0.0 0.00 0.15 0.15 88 1012.8
20260902042728 71 38 0.0 1.0 0.00 0.15 0.15 88 1013.2
20260902042223 71 187 3.0 3.0 0.00 0.15 0.15 88 1013.6
20260902041718 71 1 2.0 2.0 0.00 0.15 0.15 89 1012.8
20260902041213 71 39 0.0 0.0 0.00 0.15 0.15 89 1012.5
20260902040712 71 40 0.0 0.0 0.00 0.15 0.15 89 1012.2
20260902040208 71 40 0.0 0.0 0.07 0.15 0.15 89 1012.5
20260902035706 71 40 0.0 0.0 0.07 0.15 0.15 89 1012.8
20260902035202 71 40 0.0 0.0 0.00 0.14 0.14 89 1012.5
20260902034701 71 40 0.0 0.0 0.00 0.14 0.14 89 1012.8
20260902034200 71 40 0.0 0.0 0.00 0.14 0.14 89 1012.5
20260902033659 71 40 0.0 0.0 0.00 0.14 0.14 88 1012.5
20260902033154 71 40 0.0 0.0 0.00 0.14 0.14 88 1012.8
20260902032653 71 40 0.0 0.0 0.00 0.14 0.14 88 1012.8
20260902032148 71 40 0.0 0.0 0.00 0.14 0.14 88 1013.2
20260902031642 71 40 0.0 0.0 0.00 0.14 0.14 88 1012.5
20260902031138 71 40 0.0 0.0 0.00 0.14 0.14 88 1012.8
20260902030634 71 40 0.0 0.0 0.00 0.14 0.14 88 1012.5
20260902030133 71 40 0.0 0.0 0.00 0.14 0.14 88 1012.5
20260902025632 72 40 0.0 0.0 0.00 0.14 0.14 88 1012.8
20260902025128 72 40 0.0 0.0 0.00 0.14 0.14 88 1012.8
20260902024623 72 40 0.0 0.0 0.00 0.14 0.14 88 1012.8
20260902024118 72 40 0.0 0.0 0.00 0.14 0.14 88 1013.2
20260902023614 72 40 0.0 0.0 0.00 0.14 0.14 88 1012.8
20260902023108 72 40 0.0 0.0 0.00 0.14 0.14 88 1012.8
20260902022608 72 40 0.0 0.0 0.00 0.14 0.14 88 1013.2
20260902022104 72 40 0.0 0.0 0.00 0.14 0.14 88 1013.2
20260902021559 72 40 0.0 0.0 0.00 0.14 0.14 88 1013.2
20260902021054 72 40 0.0 0.0 0.00 0.14 0.14 88 1013.2
20260902020550 72 40 0.0 0.0 0.00 0.14 0.14 88 1012.8
20260902020046 73 40 0.0 0.0 0.00 0.14 0.14 88 1012.8
20260902015541 73 40 0.0 0.0 0.00 0.14 0.14 88 1013.2
20260902015037 73 40 0.0 0.0 0.00 0.14 0.14 88 1012.8
20260902014533 73 40 0.0 0.0 0.00 0.14 0.14 88 1012.8
20260902014028 73 40 0.0 0.0 0.00 0.14 0.14 88 1012.8
20260902013527 73 40 0.0 0.0 0.00 0.14 0.14 88 1013.2
20260902013023 73 40 0.0 0.0 0.00 0.14 0.14 88 1012.8
20260902012518 73 40 1.0 1.0 0.00 0.14 0.14 88 1012.5
20260902012014 73 40 0.0 0.0 0.00 0.14 0.14 88 1012.8
20260902011509 73 40 0.0 0.0 0.00 0.14 0.14 88 1012.8
20260902011009 73 40 0.0 0.0 0.00 0.14 0.14 88 1012.5
20260902010509 73 40 0.0 0.0 0.00 0.14 0.14 88 1012.5
20260902010004 73 40 0.0 0.0 0.00 0.14 0.14 88 1012.5
20260902005502 73 40 0.0 0.0 0.00 0.14 0.14 88 1012.2
20260902004959 73 40 0.0 0.0 0.00 0.14 0.14 87 1012.5
20260902004458 73 37 0.0 0.0 0.00 0.14 0.14 87 1012.5
20260902003953 73 38 0.0 0.0 0.00 0.14 0.14 87 1012.2
20260902003448 73 38 0.0 0.0 0.00 0.14 0.14 87 1012.5
20260902002943 73 38 0.0 0.0 0.00 0.14 0.14 87 1012.2
20260902002439 73 9 1.0 2.0 0.24 0.14 0.14 87 1012.2
20260902001938 73 56 0.0 1.0 0.28 0.14 0.14 86 1012.2
20260902001433 73 39 0.0 0.0 0.12 0.10 0.10 87 1012.2
20260902000928 73 39 0.0 0.0 0.07 0.09 0.09 87 1012.2
20260902000423 74 39 1.0 1.0 0.00 0.08 0.08 86 1012.2
20260901235918 74 39 0.0 0.0 0.00 0.08 0.08 85 1012.5
20260901235413 74 39 0.0 0.0 0.00 0.08 0.08 84 1012.2
20260901234908 75 39 0.0 0.0 0.00 0.08 0.08 84 1012.2
20260901234402 75 39 0.0 0.0 0.00 0.08 0.08 83 1012.2
20260901233857 75 37 0.0 0.0 0.00 0.08 0.08 82 1012.2
20260901233352 76 317 1.0 1.0 0.12 0.08 0.08 81 1012.5
20260901232849 77 342 2.0 2.0 0.24 0.08 0.08 81 1012.5
20260901232348 77 64 1.0 2.0 0.00 0.04 0.04 80 1011.1
20260901231844 78 69 1.0 1.0 0.00 0.04 0.04 79 1011.8
20260901231341 79 38 0.0 1.0 0.12 0.04 0.04 78 1011.8
20260901230837 80 38 2.0 2.0 0.24 0.04 0.04 76 1012.2
20260901230336 80 54 0.0 1.0 0.05 0.01 0.01 73 1011.8
20260901225832 81 329 2.0 2.0 0.00 0.00 0.00 71 1013.6
20260901225331 81 331 1.0 1.0 0.00 0.00 0.00 67 1013.2
20260901224826 82 30 0.0 0.0 0.00 0.00 0.00 65 1012.8
20260901224323 82 30 0.0 0.0 0.00 0.00 0.00 67 1013.6
20260901223819 82 324 2.0 2.0 0.00 0.00 0.00 68 1013.9
20260901223314 82 359 1.0 1.0 0.00 0.00 0.00 67 1013.2
20260901222809 82 349 2.0 2.0 0.00 0.00 0.00 67 1013.2
20260901222306 82 353 1.0 1.0 0.00 0.00 0.00 65 1012.5
20260901221801 82 356 1.0 1.0 0.00 0.00 0.00 64 1012.2
20260901221251 83 9 1.0 1.0 0.00 0.00 0.00 65 1012.2
20260901220750 83 349 2.0 2.0 0.00 0.00 0.00 65 1012.2
20260901220250 84 35 0.0 0.0 0.00 0.00 0.00 66 1011.5
20260901215749 85 35 0.0 0.0 0.00 0.00 0.00 61 1012.2
20260901215248 86 357 0.0 0.0 0.00 0.00 0.00 63 1012.8
20260901214747 87 352 1.0 1.0 0.00 0.00 0.00 62 1012.5
20260901214245 88 352 1.0 1.0 0.00 0.00 0.00 60 1012.5
20260901213740 89 340 1.0 1.0 0.00 0.00 0.00 58 1012.5
20260901213235 90 340 0.0 0.0 0.00 0.00 0.00 56 1012.2
20260901212735 91 339 0.0 0.0 0.00 0.00 0.00 52 1012.2
20260901212230 91 339 0.0 0.0 0.00 0.00 0.00 50 1012.2
20260901211725 92 339 0.0 0.0 0.00 0.00 0.00 49 1012.2
20260901211222 92 337 0.0 0.0 0.00 0.00 0.00 47 1012.2
20260901210718 93 337 0.0 0.0 0.00 0.00 0.00 48 1012.5
20260901210213 93 333 1.0 1.0 0.00 0.00 0.00 46 1012.5
20260901205709 92 327 0.0 0.0 0.00 0.00 0.00 43 1012.5
20260901205203 92 349 1.0 1.0 0.00 0.00 0.00 44 1012.5
20260901204659 91 302 0.0 0.0 0.00 0.00 0.00 43 1012.8
20260901204155 90 359 0.0 0.0 0.00 0.00 0.00 47 1012.8
20260901203654 89 335 0.0 0.0 0.00 0.00 0.00 49 1012.8
20260901203150 89 331 0.0 1.0 0.00 0.00 0.00 48 1012.8
20260901202648 88 323 2.0 2.0 0.00 0.00 0.00 52 1012.5
20260901202145 87 337 1.0 1.0 0.00 0.00 0.00 49 1012.8
20260901201641 86 357 0.0 0.0 0.00 0.00 0.00 55 1012.8
20260901201140 86 35 0.0 0.0 0.00 0.00 0.00 56 1012.8
20260901200640 86 42 0.0 0.0 0.00 0.00 0.00 55 1012.5
20260901200135 87 42 0.0 0.0 0.00 0.00 0.00 55 1012.8
20260901195632 87 42 0.0 0.0 0.00 0.00 0.00 55 1012.8
20260901195132 87 42 0.0 0.0 0.00 0.00 0.00 54 1013.2
20260901194628 88 42 0.0 0.0 0.00 0.00 0.00 54 1013.2
20260901194123 89 42 0.0 0.0 0.00 0.00 0.00 57 1013.6
20260901193619 89 42 0.0 0.0 0.00 0.00 0.00 54 1013.6
20260901193118 89 42 0.0 0.0 0.00 0.00 0.00 51 1013.2
20260901192614 89 351 1.0 1.0 0.00 0.00 0.00 54 1013.2
20260901192109 90 352 0.0 0.0 0.00 0.00 0.00 54 1013.6
20260901191605 90 321 0.0 1.0 0.00 0.00 0.00 52 1013.6
20260901191101 90 261 0.0 0.0 0.00 0.00 0.00 49 1013.6
20260901190556 90 284 0.0 1.0 0.00 0.00 0.00 51 1013.6
20260901190055 90 315 0.0 0.0 0.00 0.00 0.00 49 1013.6
20260901185554 89 327 1.0 1.0 0.00 0.00 0.00 48 1013.2
20260901185053 89 306 1.0 1.0 0.00 0.00 0.00 46 1013.6
20260901184549 89 299 0.0 1.0 0.00 0.00 0.00 47 1013.6
20260901184044 89 312 1.0 1.0 0.00 0.00 0.00 46 1013.6
20260901183544 89 316 1.0 2.0 0.00 0.00 0.00 48 1013.6
20260901183039 89 345 0.0 1.0 0.00 0.00 0.00 47 1013.6
20260901182535 89 323 0.0 0.0 0.00 0.00 0.00 47 1013.2
20260901182030 90 346 0.0 1.0 0.00 0.00 0.00 47 1013.2
20260901181529 90 341 0.0 0.0 0.00 0.00 0.00 47 1013.6
20260901181029 90 292 0.0 1.0 0.00 0.00 0.00 40 1013.6
20260901180527 90 347 2.0 2.0 0.00 0.00 0.00 41 1013.6
20260901180022 90 316 0.0 0.0 0.00 0.00 0.00 46 1013.6
20260901175516 89 30 0.0 1.0 0.00 0.00 0.00 40 1013.6
20260901175010 89 15 1.0 1.0 0.00 0.00 0.00 46 1013.9
20260901174507 89 278 0.0 1.0 0.00 0.00 0.00 46 1013.6
20260901174002 89 6 2.0 2.0 0.00 0.00 0.00 53 1013.9
20260901173457 88 267 1.0 1.0 0.00 0.00 0.00 53 1013.9
20260901172953 88 245 0.0 1.0 0.00 0.00 0.00 51 1013.9
20260901172448 88 355 0.0 1.0 0.00 0.00 0.00 53 1013.9
20260901171946 87 243 1.0 1.0 0.00 0.00 0.00 54 1013.9
20260901171445 87 12 0.0 0.0 0.00 0.00 0.00 55 1013.9
20260901170944 87 328 1.0 2.0 0.00 0.00 0.00 53 1013.9
20260901170439 86 327 0.0 0.0 0.00 0.00 0.00 56 1013.9
20260901165938 86 347 0.0 0.0 0.00 0.00 0.00 58 1013.9
20260901165433 86 1 1.0 1.0 0.00 0.00 0.00 57 1013.9
20260901164929 85 324 1.0 2.0 0.00 0.00 0.00 57 1013.9
20260901164424 85 286 0.0 1.0 0.00 0.00 0.00 59 1013.9
20260901163919 85 192 0.0 0.0 0.00 0.00 0.00 62 1013.9
20260901163414 84 343 0.0 0.0 0.00 0.00 0.00 63 1013.9
20260901162908 84 354 1.0 2.0 0.00 0.00 0.00 63 1013.9
20260901162408 84 254 1.0 1.0 0.00 0.00 0.00 64 1013.9
20260901161908 83 10 0.0 1.0 0.00 0.00 0.00 64 1014.3
20260901161407 83 197 1.0 1.0 0.00 0.00 0.00 64 1013.9
20260901160902 82 186 1.0 1.0 0.00 0.00 0.00 64 1013.9
20260901160358 81 211 1.0 2.0 0.00 0.00 0.00 64 1013.9
20260901155858 81 19 0.0 0.0 0.00 0.00 0.00 68 1013.9
20260901155352 80 359 0.0 1.0 0.00 0.00 0.00 71 1013.9
20260901154849 80 119 0.0 0.0 0.00 0.00 0.00 71 1013.9
20260901154348 80 205 1.0 1.0 0.00 0.00 0.00 72 1013.9
20260901153843 80 319 1.0 1.0 0.00 0.00 0.00 74 1014.3
20260901153338 80 286 0.0 1.0 0.00 0.00 0.00 74 1013.9
20260901152836 79 263 0.0 0.0 0.00 0.00 0.00 75 1013.9
20260901152336 78 347 1.0 1.0 0.00 0.00 0.00 76 1014.3
20260901151832 78 260 1.0 1.0 0.00 0.00 0.00 76 1014.3
20260901151326 77 43 0.0 0.0 0.00 0.00 0.00 76 1013.9
20260901150826 76 112 1.0 1.0 0.00 0.00 0.00 76 1013.9
20260901150324 75 121 0.0 0.0 0.00 0.00 0.00 82 1014.3
20260901145821 74 124 0.0 0.0 0.00 0.00 0.00 87 1013.9
20260901145315 73 38 0.0 0.0 0.00 0.00 0.00 88 1014.3
20260901144811 73 36 0.0 0.0 0.00 0.00 0.00 89 1013.9
20260901144307 72 35 0.0 0.0 0.00 0.00 0.00 89 1013.9
20260901143802 72 7 0.0 0.0 0.00 0.00 0.00 89 1014.3
20260901143258 71 317 0.0 0.0 0.00 0.00 0.00 89 1013.9
20260901142754 71 6 0.0 0.0 0.00 0.00 0.00 89 1013.9
20260901142253 71 348 0.0 0.0 0.00 0.00 0.00 89 1013.9
20260901141748 71 5 0.0 0.0 0.00 0.00 0.00 89 1013.9
20260901141249 71 333 0.0 1.0 0.00 0.00 0.00 89 1014.3
20260901140748 71 338 0.0 0.0 0.00 0.00 0.00 89 1014.3
20260901140246 71 18 0.0 0.0 0.00 0.00 0.00 89 1013.9
20260901135742 71 5 2.0 2.0 0.00 0.00 0.00 89 1014.3
20260901135241 71 353 0.0 0.0 0.00 0.00 0.00 89 1014.3
20260901134738 71 312 1.0 1.0 0.00 0.00 0.00 89 1014.3
20260901134237 70 18 1.0 2.0 0.00 0.00 0.00 89 1014.3
20260901133737 70 36 1.0 1.0 0.00 0.00 0.00 89 1014.3
20260901133237 70 36 0.0 0.0 0.00 0.00 0.00 89 1014.3
20260901132735 70 36 0.0 0.0 0.00 0.00 0.00 89 1014.3
20260901132231 70 36 0.0 0.0 0.00 0.00 0.00 89 1014.3
20260901131725 70 36 0.0 0.0 0.00 0.00 0.00 89 1014.3
20260901131224 70 36 0.0 0.0 0.00 0.00 0.00 89 1014.6
20260901130720 70 36 0.0 0.0 0.00 0.00 0.00 89 1014.3
20260901130219 70 36 0.0 0.0 0.00 0.00 0.00 89 1014.3
20260901125716 70 36 0.0 0.0 0.00 0.00 0.00 89 1014.3
20260901125212 70 36 0.0 0.0 0.00 0.00 0.00 89 1014.3
20260901124706 69 36 0.0 0.0 0.00 0.00 0.00 89 1013.9
20260901124201 69 36 0.0 0.0 0.00 0.00 0.00 89 1013.9
20260901123655 69 36 0.0 0.0 0.00 0.00 0.00 89 1013.9
20260901123155 69 36 0.0 0.0 0.00 0.00 0.00 89 1014.3
20260901122654 69 36 0.0 0.0 0.00 0.00 0.00 89 1014.3
20260901122149 69 36 0.0 0.0 0.00 0.00 0.00 89 1014.3
20260901121643 69 37 0.0 0.0 0.00 0.00 0.00 89 1014.3
20260901121139 69 37 0.0 0.0 0.00 0.00 0.00 89 1013.9
20260901120638 69 37 0.0 0.0 0.00 0.00 0.00 89 1013.9
20260901120133 69 37 0.0 0.0 0.00 0.00 0.00 89 1013.9
20260901115629 69 37 0.0 0.0 0.00 0.00 0.00 89 1013.6
20260901115125 69 37 0.0 0.0 0.00 0.00 0.00 89 1013.9
20260901114622 69 37 0.0 0.0 0.00 0.00 0.00 89 1013.9
20260901114120 70 37 0.0 0.0 0.00 0.00 0.00 89 1013.6
20260901113620 70 37 0.0 0.0 0.00 0.00 0.00 89 1013.6
20260901113115 70 37 0.0 0.0 0.00 0.00 0.00 89 1013.6
20260901112615 70 37 0.0 0.0 0.00 0.00 0.00 89 1013.6
20260901112109 70 37 0.0 0.0 0.00 0.00 0.00 89 1013.2
20260901111608 70 37 0.0 0.0 0.00 0.00 0.00 89 1013.2
20260901111107 70 37 0.0 0.0 0.00 0.00 0.00 89 1013.6
20260901110603 70 37 0.0 0.0 0.00 0.00 0.00 89 1013.6
20260901110058 70 37 0.0 0.0 0.00 0.00 0.00 89 1013.6
20260901105555 70 37 0.0 0.0 0.00 0.00 0.00 89 1013.2
20260901105054 70 37 0.0 0.0 0.00 0.00 0.00 89 1013.6
20260901104550 70 37 0.0 0.0 0.00 0.00 0.00 89 1013.2
20260901104045 70 37 0.0 0.0 0.00 0.00 0.00 89 1013.6
20260901103539 70 37 0.0 0.0 0.00 0.00 0.00 89 1013.6
20260901103036 70 37 0.0 0.0 0.00 0.00 0.00 89 1013.2
20260901102536 70 37 0.0 0.0 0.00 0.00 0.00 89 1013.2
20260901102035 70 37 0.0 0.0 0.00 0.00 0.00 89 1013.6
20260901101531 70 37 0.0 0.0 0.00 0.00 0.00 89 1013.2
20260901101030 71 37 0.0 0.0 0.00 0.00 0.00 89 1013.2
20260901100525 71 37 0.0 0.0 0.00 0.00 0.00 89 1013.2
20260901100025 71 37 0.0 0.0 0.00 0.00 0.00 89 1013.2
20260901095523 71 37 0.0 0.0 0.00 0.00 0.00 89 1013.2
20260901095021 71 37 0.0 0.0 0.00 0.00 0.00 89 1013.2
20260901094516 71 37 0.0 0.0 0.00 0.00 0.00 89 1013.2
20260901094016 71 37 0.0 0.0 0.00 0.00 0.00 89 1013.2
20260901093510 71 37 0.0 0.0 0.00 0.00 0.00 88 1013.2
20260901093005 71 37 0.0 0.0 0.00 0.00 0.00 88 1013.2
20260901092501 71 37 0.0 0.0 0.00 0.00 0.00 88 1013.2
20260901091957 71 37 0.0 0.0 0.00 0.00 0.00 88 1012.8
20260901091452 71 37 0.0 0.0 0.00 0.00 0.00 88 1013.2